This demonstration page uses our WeatherBlox Daily Observations layout. Learn more.

Left ArrowRight Arrow

38.83388, -104.82136

Hourly Observations for May 10, 2018

Temp ( °F °C ) Dew Point ( °F °C ) Humidity (%) Winds ( mph kmh ) Pressure ( in mb ) Visibility ( mi km ) Precip ( " mm )
12:58 am 00:58 Clear 65 18.1 29 -1.8 26 26 SW 9 15 29.50 999 10 16 0.00 0.00
1:58 am 01:58 Mostly Clear 64 18 28 -2.1 26 26 Calm 29.49 999 10 16 0.00 0.00
2:58 am 02:58 Mostly Clear 63 17.1 28 -2.5 26 26 SSW 9 15 29.47 998 10 16 0.00 0.00
3:58 am 03:58 Clear 60 15.5 29 -1.8 31 31 Calm 29.49 999 10 16 0.00 0.00
4:58 am 04:58 Clear 57 13.8 30 -1.3 36 36 Calm 29.49 999 10 16 0.00 0.00
5:58 am 05:58 Sunny 62 16.4 28 -2.1 28 28 SSW 7 11 29.48 998 10 16 0.00 0.00
6:58 am 06:58 Sunny 64 18 26 -3.1 24 24 S 13 20 29.48 998 10 16 0.00 0.00
7:58 am 07:58 Sunny 64 18 33 0.3 30 30 SSE 9 15 29.49 999 10 16 0.00 0.00
8:58 am 08:58 Sunny 62 16.8 34 0.9 34 34 SE 13 20 29.49 999 10 16 0.00 0.00
9:58 am 09:58 Sunny 66 19 37 2.7 34 34 SE 16 26 29.49 999 10 16 0.00 0.00
10:58 am 10:58 Sunny 72 22.3 36 2.4 27 27 SE 10 17 29.43 997 10 16 0.00 0.00
11:58 am 11:58 Mostly Sunny 77 25 31 -0.3 19 19 SE 20 31 29.39 995 10 16 0.00 0.00
12:58 pm 12:58 Mostly Sunny 77 25.2 22 -5.5 13 13 SE 13 20 29.36 994 10 16 0.00 0.00
1:58 pm 13:58 Mostly Cloudy 77 24.9 24 -4.7 14 14 SE 18 30 29.33 993 10 16 0.00 0.00
2:48 pm 14:48 Mostly Cloudy 79 26 21 -6 12 12 SSE 17 28 29.32 993 10 16 0.00 0.00
2:58 pm 14:58 Mostly Cloudy 78 25.5 23 -5.2 13 13 SE 16 26 29.30 992 10 16 0.00 0.00
3:11 pm 15:11 Mostly Cloudy 79 26 21 -6 12 12 S 18 30 29.30 992 10 16 0.00 0.00
3:37 pm 15:37 Mostly Cloudy 79 26 19 -7 11 11 S 23 37 29.28 992 10 16 0.00 0.00
3:58 pm 15:58 Mostly Cloudy 78 25.5 18 -7.8 10 10 S 13 20 29.29 992 10 16 0.00 0.00
4:58 pm 16:58 Mostly Cloudy 78 25.8 18 -7.7 10 10 SSE 13 20 29.28 992 10 16 0.00 0.00
5:58 pm 17:58 Mostly Cloudy 78 25.3 19 -7.5 11 11 SSE 5 7 29.25 991 10 16 0.00 0.00
6:58 pm 18:58 Partly Cloudy 76 24.5 19 -7.5 11 11 S 9 15 29.23 990 10 16 0.00 0.00
7:58 pm 19:58 Mostly Sunny 73 22.7 20 -6.5 14 14 WNW 3 6 29.25 991 10 16 0.00 0.00
8:58 pm 20:58 Partly Cloudy 73 22.6 18 -7.6 13 13 W 6 9 29.28 992 10 16 0.00 0.00
9:58 pm 21:58 Mostly Cloudy 71 21.4 19 -7 14 14 WNW 5 7 29.29 992 10 16 0.00 0.00
10:28 pm 22:28 Partly Cloudy 66 19 37 3 35 35 NW 18 30 29.30 992 10 16 0.00 0.00
10:58 pm 22:58 Clear 64 18 41 5.1 43 43 NNW 12 19 29.29 992 10 16 0.00 0.00
11:58 pm 23:58 Clear 58 14.6 45 7.4 62 62 NW 22 35 29.31 993 10 16 0.00 0.00

Powered by AerisWeather